Wind_Speed
24 22 21 20 20 20 18 19 23 27 28 27 22 20 18 21 25 25 23 22 22 22 22 21 21 20 19 19 18 17 17 16 16 16 16 16 16 17 17 16 16 15 16 17 18 18 18 18 18
26 24 23 21 20 20 18 21 25 27 24 21 21 20 19 26 27 23 25 24 23 22 21 21 19 18 17 17 17 16 16 16 15 14 14 15 16 17 17 16 15 15 16 17 18 18 19 20 20
29 27 25 23 21 20 20 25 27 24 20 21 21 21 23 28 24 23 25 24 23 22 21 19 16 15 15 15 16 16 15 15 14 13 13 14 15 17 18 18 17 16 17 18 19 19 20 21 22
32 30 27 26 24 22 24 27 24 20 20 21 20 22 27 26 24 24 25 25 23 20 19 17 14 14 15 15 15 15 15 15 14 14 13 13 14 16 18 19 19 19 20 20 21 21 21 21 21
34 33 30 28 25 25 26 26 23 20 21 20 20 22 27 22 22 23 24 25 22 19 16 15 13 13 14 14 14 14 14 14 14 14 14 14 14 16 18 20 21 21 22 23 23 22 22 21 21
37 35 33 29 27 27 29 27 24 24 23 22 22 22 27 19 21 23 24 25 22 19 16 15 13 13 14 14 14 13 14 14 15 15 16 16 16 17 18 19 20 21 23 23 23 23 23 23 23
38 38 35 32 30 29 32 27 25 26 24 24 22 21 29 20 22 23 24 24 22 19 17 16 15 14 14 14 14 14 14 15 16 16 17 18 19 19 20 20 20 21 22 22 23 24 25 25 26
38 40 39 35 32 31 34 30 26 27 27 25 21 24 32 18 21 24 24 24 22 20 19 18 16 16 15 15 14 13 13 14 16 17 18 20 21 22 23 24 24 24 24 24 25 27 28 29 30
41 41 41 37 34 33 35 33 28 28 27 27 26 28 32 23 23 24 24 24 23 21 20 19 18 18 17 16 15 13 13 14 15 16 17 19 20 22 23 24 25 26 26 27 28 29 31 32 33
43 41 38 37 36 36 39 37 29 28 29 30 30 32 33 28 25 25 25 24 23 22 21 20 20 20 19 17 16 15 15 16 16 16 17 18 19 20 21 23 24 26 27 28 30 31 33 34 36
44 41 38 38 39 41 42 37 30 29 29 31 34 34 31 26 25 26 26 25 24 22 22 22 22 22 20 19 19 19 19 19 19 19 19 19 20 21 21 22 24 26 27 30 31 33 34 36 38
45 43 41 40 41 45 43 37 33 31 29 32 34 32 29 27 26 27 27 25 24 23 22 23 23 23 22 22 22 22 22 23 23 23 22 22 22 22 23 24 25 27 29 32 34 36 37 39 41
47 45 44 42 43 47 45 39 35 31 30 34 35 32 30 29 28 27 27 25 25 24 22 22 23 24 24 24 24 24 25 26 26 26 26 26 26 26 26 27 28 30 31 33 35 36 38 38 38
49 48 47 45 45 47 46 41 38 31 31 35 34 31 29 29 28 27 27 27 26 24 23 22 23 24 25 25 25 26 27 28 29 29 29 29 30 30 30 30 31 33 34 35 35 36 36 36 36
52 52 50 47 47 47 47 45 39 31 34 36 34 32 30 29 28 27 27 27 26 24 23 22 23 24 25 25 25 27 28 29 31 32 32 32 32 32 33 34 35 36 37 36 36 35 35 35 34
54 55 53 48 48 47 49 46 36 35 38 36 33 32 30 29 28 28 28 28 26 24 23 22 23 24 25 26 27 28 30 31 33 34 34 34 34 34 35 37 38 38 38 37 36 35 34 34 34
56 56 54 50 49 48 50 47 37 37 39 35 32 31 31 29 28 28 29 28 27 25 23 23 23 24 26 27 29 30 32 34 34 34 33 33 34 35 37 39 39 38 37 36 36 35 36 36 36
55 55 55 52 50 50 50 47 39 39 39 36 33 32 31 28 27 28 29 29 28 25 24 23 24 25 27 29 32 33 35 35 34 33 33 33 35 37 39 40 40 39 38 37 37 37 38 39 39
53 54 55 53 51 51 51 46 42 40 40 37 34 33 32 28 27 28 28 29 28 27 25 25 25 27 29 31 33 35 35 34 33 33 34 35 37 39 40 41 40 39 39 39 39 40 41 42 43
55 54 54 53 51 51 51 47 44 42 40 36 33 33 33 28 28 28 28 28 28 28 27 26 27 29 31 32 33 33 33 32 33 34 36 38 40 41 42 41 41 41 41 42 42 43 44 45 48
56 54 52 50 50 51 51 48 45 40 38 37 34 33 32 27 28 28 28 29 29 28 28 28 28 30 32 32 32 32 32 33 35 36 38 40 41 41 41 42 42 42 43 44 45 46 48 50 52
54 51 47 45 45 50 50 47 43 40 39 38 34 33 31 27 28 27 28 28 29 28 28 28 29 30 31 31 31 32 33 35 37 39 40 41 41 41 41 42 42 43 44 45 47 50 53 55 58
48 46 45 42 43 48 49 48 43 41 39 37 34 33 30 27 28 27 27 28 28 28 28 29 30 30 31 32 33 34 36 38 39 40 40 40 40 41 41 41 42 43 45 48 51 55 58 62 65
45 45 42 41 43 48 48 45 41 38 37 36 34 31 29 27 28 27 27 27 27 28 28 29 30 31 32 34 35 37 38 39 39 40 40 40 40 40 41 42 43 46 49 53 56 60 64 67 70
48 48 44 43 46 48 44 43 40 38 36 34 31 30 28 27 27 28 27 27 27 28 29 30 31 33 34 36 37 38 39 39 40 40 40 40 40 41 42 44 47 51 55 58 61 65 68 70 73
50 48 44 46 47 44 41 41 39 37 32 30 30 29 27 26 27 27 27 27 28 29 30 31 33 34 35 37 37 38 38 39 39 39 40 40 41 43 45 49 53 56 60 63 66 68 71 73 75
48 47 41 41 40 38 40 38 36 32 29 29 27 26 25 25 26 26 27 28 29 30 31 32 34 35 36 36 37 37 38 38 38 39 40 41 44 47 50 54 57 60 63 66 69 72 74 76 77
44 44 40 38 37 36 37 35 33 28 27 27 25 24 24 25 25 26 27 28 29 30 32 33 34 34 35 36 37 37 37 38 38 40 42 44 48 51 55 58 61 65 68 71 73 74 76 77 79
43 43 40 38 35 34 33 31 31 27 25 25 24 24 25 26 26 27 28 28 29 31 32 32 33 34 35 36 37 37 37 38 40 42 45 49 52 55 59 62 66 69 72 74 75 75 76 78 80
38 39 38 36 34 30 27 27 26 24 23 24 24 25 26 27 27 28 28 29 30 32 32 33 33 34 35 36 37 37 38 40 43 46 49 53 56 60 63 67 70 73 74 74 74 75 77 80 84
Wind_Direction
258 262 263 263 262 258 257 249 242 244 245 246 248 248 250 254 253 257 262 263 265 269 273 279 287 292 293 293 292 288 282 281 280 280 278 273 270 267 269 273 274 273 272 271 272 274 275 277 279
254 258 260 262 261 258 251 244 243 249 254 251 244 242 244 250 251 256 260 262 263 266 271 279 285 289 292 292 290 285 281 280 283 285 281 275 269 266 267 271 273 274 275 274 276 278 279 279 280
251 253 256 259 259 257 248 242 246 255 251 243 240 241 242 249 256 256 259 262 262 264 269 277 280 284 288 289 289 287 284 282 286 288 283 276 269 264 264 268 270 272 275 276 278 279 280 280 280
248 249 251 255 257 255 252 255 258 254 243 239 237 239 243 247 253 254 258 260 260 261 266 271 273 280 284 287 288 289 287 285 286 287 286 281 273 267 266 268 270 273 276 279 281 282 282 281 280
247 247 248 251 256 257 254 255 255 247 238 235 233 238 246 246 253 256 258 259 259 257 259 261 264 273 280 285 287 288 288 287 286 286 285 284 279 274 271 271 272 274 276 279 282 284 283 281 281
246 245 246 248 252 255 256 252 249 243 238 234 233 239 249 248 254 257 259 260 258 255 252 250 254 264 274 281 282 284 286 287 287 286 285 284 282 280 279 279 278 278 278 279 281 282 281 281 281
246 244 244 244 247 249 256 253 248 244 239 235 236 243 251 248 257 260 261 259 255 251 246 243 243 252 266 275 278 281 284 286 288 287 286 284 283 282 282 282 283 283 282 281 282 281 280 279 278
246 245 243 242 245 249 255 254 248 244 239 241 240 243 253 254 262 261 259 256 251 247 243 237 239 248 261 268 272 280 286 290 290 289 288 286 284 283 282 282 282 282 282 282 282 281 280 279 279
246 245 243 242 246 249 254 254 248 246 242 241 239 243 254 254 256 258 255 252 247 243 243 237 234 244 256 264 270 279 288 294 295 294 293 291 289 287 285 283 281 280 280 280 280 281 281 282 283
246 248 247 244 246 248 251 252 249 247 243 241 241 242 248 252 255 257 251 246 244 243 242 239 238 243 251 257 267 279 287 293 295 298 298 297 295 292 288 285 283 282 281 282 282 283 283 284 285
247 247 246 243 244 246 249 252 251 248 244 242 242 243 249 253 254 252 248 245 244 243 242 241 242 247 252 257 265 276 284 289 293 295 296 296 296 294 292 291 289 287 286 286 286 286 286 286 287
247 245 244 242 242 245 247 250 250 248 244 244 245 247 248 248 250 249 246 245 246 243 241 244 246 250 254 258 268 275 281 285 289 292 294 295 295 295 294 294 293 292 291 290 290 290 290 289 289
246 245 243 241 241 244 244 246 248 247 243 243 244 245 245 244 248 248 247 246 246 246 244 244 249 253 257 262 269 276 280 283 286 289 291 293 294 295 295 295 295 295 293 292 292 292 291 291 290
245 244 241 239 239 242 243 243 244 244 243 242 243 244 244 244 248 249 247 245 246 247 248 249 252 256 261 267 273 279 282 285 286 287 288 289 291 292 293 295 296 296 296 295 295 294 292 291 291
243 243 240 238 238 241 242 240 241 241 242 241 241 242 242 244 247 248 248 247 248 249 252 254 256 260 265 271 277 281 283 285 286 286 286 287 289 290 292 294 296 298 298 298 297 296 295 294 294
242 241 240 238 238 239 241 239 237 238 240 241 239 240 240 242 246 248 247 247 249 251 254 256 259 263 269 276 281 284 287 288 289 288 287 287 287 289 291 294 296 298 299 298 298 297 296 295 294
239 240 240 238 237 238 240 239 233 238 240 240 239 239 239 240 244 246 246 247 249 251 253 256 261 266 273 279 284 287 290 291 291 289 288 287 287 289 291 294 296 297 297 297 296 296 295 294 293
241 240 239 237 235 236 239 239 233 236 239 238 237 237 238 238 242 245 246 246 248 250 252 256 263 270 276 281 286 289 292 292 291 290 289 288 290 292 294 295 296 297 296 296 296 296 295 294 293
240 238 238 237 235 235 237 236 232 234 237 236 235 236 237 236 240 244 246 247 248 249 253 259 266 273 279 284 288 290 291 292 291 291 291 292 294 295 296 298 298 298 298 298 298 297 297 296 296
235 234 234 235 234 234 235 233 230 231 235 235 234 235 237 235 240 243 246 248 249 250 255 261 269 276 282 286 288 289 289 289 290 291 293 295 296 297 298 299 300 301 301 301 301 301 301 301 300
230 228 229 232 233 232 233 231 229 230 233 234 232 233 236 234 240 244 247 248 249 251 256 264 272 279 284 286 286 286 287 288 290 292 294 295 296 297 299 300 301 302 303 303 304 303 302 301 299
223 221 221 224 229 231 230 230 227 229 230 231 230 232 234 234 240 245 248 249 250 253 258 266 274 280 283 283 283 285 286 288 291 293 295 296 298 299 300 301 302 303 304 303 302 301 300 299 298
213 209 211 215 223 229 228 228 223 229 229 230 230 231 234 235 241 246 249 250 251 254 261 268 275 279 280 281 282 284 287 289 292 294 296 297 299 300 301 302 302 302 301 301 301 301 300 300 299
198 199 204 208 218 226 225 226 222 229 230 228 230 232 235 237 242 247 249 250 252 256 263 269 274 277 279 281 283 286 288 291 293 295 297 299 300 300 300 300 300 300 300 300 301 301 301 301 300
189 191 200 206 214 222 221 224 221 228 229 228 230 234 237 239 243 247 250 251 254 259 264 269 272 276 279 282 284 287 289 292 294 296 298 298 299 298 298 299 299 300 301 301 302 302 302 302 302
184 189 199 207 213 217 218 222 222 226 229 230 231 235 239 242 245 248 251 253 257 261 265 269 273 277 280 283 285 288 290 292 294 296 296 297 297 297 298 299 300 301 302 303 303 304 303 303 303
186 191 197 207 214 216 219 220 224 225 228 231 234 237 241 244 247 249 252 255 259 262 266 271 274 278 281 284 286 288 290 292 293 294 295 295 296 297 299 301 302 304 304 305 305 305 305 306 306
188 189 195 204 207 211 216 219 224 224 227 232 236 240 244 247 249 252 255 258 261 265 268 272 276 280 282 284 285 287 290 292 293 294 295 296 298 300 302 304 305 306 307 307 307 308 308 308 308
185 188 195 200 202 205 212 215 219 221 226 232 237 241 245 248 251 254 258 261 264 267 271 275 278 281 283 284 286 288 291 292 294 295 297 299 301 303 305 307 308 309 309 310 310 310 310 310 310
187 193 196 198 199 199 207 216 218 222 228 233 237 241 245 249 253 256 260 264 267 270 274 277 280 282 284 286 288 290 292 294 296 298 300 303 305 307 308 310 311 311 311 311 311 312 312 312 312
Height
5821 5822 5824 5826 5828 5830 5831 5832 5832 5831 5833 5835 5839 5841 5843 5843 5842 5846 5845 5844 5845 5846 5846 5847 5847 5846 5846 5845 5845 5845 5844 5844 5844 5844 5844 5844 5845 5846 5847 5847 5847 5847 5848 5848 5848 5848 5848 5847 5846
5817 5819 5821 5822 5824 5825 5828 5828 5827 5828 5831 5834 5836 5837 5839 5837 5837 5841 5840 5841 5842 5843 5843 5844 5844 5844 5843 5843 5843 5842 5842 5842 5842 5841 5841 5842 5842 5843 5844 5844 5844 5844 5845 5845 5845 5844 5844 5844 5843
5812 5814 5817 5818 5819 5821 5822 5822 5822 5825 5829 5830 5832 5834 5834 5832 5836 5837 5836 5837 5838 5840 5841 5841 5842 5841 5841 5841 5840 5840 5840 5840 5840 5839 5839 5839 5839 5840 5841 5841 5841 5841 5841 5841 5841 5841 5840 5840 5839
5807 5809 5812 5814 5815 5816 5817 5818 5820 5823 5825 5826 5829 5830 5828 5830 5831 5833 5833 5834 5835 5837 5838 5838 5839 5839 5838 5838 5838 5837 5837 5837 5837 5837 5837 5837 5836 5837 5837 5838 5838 5838 5838 5838 5838 5837 5836 5836 5835
5800 5804 5807 5809 5810 5812 5813 5814 5817 5819 5820 5823 5825 5825 5823 5828 5828 5829 5830 5830 5832 5834 5835 5835 5836 5836 5836 5835 5835 5835 5834 5834 5834 5834 5834 5834 5834 5834 5834 5834 5834 5834 5834 5834 5834 5833 5832 5831 5831
5794 5798 5801 5803 5806 5806 5807 5810 5814 5815 5817 5819 5821 5821 5820 5825 5825 5826 5826 5826 5828 5830 5832 5832 5833 5833 5833 5833 5832 5832 5832 5831 5831 5831 5831 5831 5831 5831 5831 5830 5830 5830 5830 5830 5829 5828 5827 5826 5825
5789 5791 5794 5798 5800 5801 5802 5805 5809 5811 5814 5815 5818 5819 5815 5821 5821 5822 5822 5822 5824 5826 5828 5829 5829 5830 5830 5830 5830 5829 5829 5828 5828 5827 5827 5827 5827 5827 5826 5826 5825 5825 5825 5825 5824 5823 5821 5820 5819
5781 5784 5787 5792 5794 5796 5797 5800 5804 5807 5810 5812 5815 5815 5810 5818 5818 5817 5818 5818 5820 5822 5824 5825 5826 5826 5826 5826 5827 5826 5826 5825 5825 5824 5824 5823 5822 5822 5821 5821 5820 5820 5820 5819 5818 5817 5815 5814 5813
5773 5777 5780 5787 5790 5792 5791 5794 5799 5802 5806 5808 5810 5810 5808 5813 5813 5813 5814 5814 5816 5818 5819 5821 5822 5823 5823 5823 5823 5823 5823 5822 5822 5821 5820 5818 5817 5817 5816 5815 5815 5814 5814 5813 5812 5810 5809 5808 5807
5765 5769 5776 5782 5784 5785 5785 5787 5794 5798 5801 5803 5804 5804 5803 5807 5809 5809 5810 5810 5812 5814 5815 5816 5817 5818 5819 5820 5820 5820 5820 5819 5818 5817 5816 5814 5813 5812 5811 5810 5809 5809 5808 5807 5806 5805 5803 5802 5801
5758 5763 5769 5773 5777 5777 5778 5782 5789 5792 5796 5797 5798 5798 5800 5804 5805 5805 5805 5806 5808 5810 5811 5812 5813 5814 5815 5816 5817 5817 5816 5816 5815 5813 5812 5811 5810 5808 5807 5806 5805 5803 5802 5801 5800 5798 5797 5795 5793
5750 5755 5760 5766 5769 5769 5772 5777 5782 5786 5791 5791 5792 5795 5797 5799 5800 5800 5801 5803 5804 5806 5808 5808 5809 5810 5811 5812 5812 5812 5812 5812 5811 5809 5808 5807 5806 5804 5803 5801 5800 5799 5797 5795 5793 5791 5789 5787 5786
5741 5747 5752 5757 5760 5761 5766 5771 5776 5781 5785 5785 5786 5790 5792 5794 5795 5796 5797 5799 5800 5801 5803 5805 5805 5806 5807 5807 5808 5808 5808 5807 5806 5805 5803 5802 5801 5800 5798 5797 5795 5793 5791 5789 5786 5784 5781 5779 5777
5732 5737 5742 5748 5752 5754 5759 5765 5769 5776 5778 5779 5781 5785 5787 5789 5790 5791 5793 5795 5796 5798 5799 5801 5801 5802 5803 5803 5804 5804 5803 5802 5801 5800 5798 5797 5796 5794 5792 5791 5789 5786 5784 5781 5778 5776 5773 5771 5768
5721 5726 5732 5738 5744 5748 5751 5756 5764 5771 5770 5772 5776 5780 5782 5784 5785 5787 5789 5790 5792 5794 5796 5797 5798 5798 5798 5799 5800 5799 5799 5798 5796 5795 5793 5791 5790 5788 5786 5784 5781 5779 5776 5773 5770 5767 5765 5762 5760
5710 5715 5722 5731 5736 5741 5744 5749 5760 5763 5763 5767 5772 5775 5777 5779 5780 5782 5784 5786 5788 5790 5792 5793 5793 5794 5794 5795 5795 5795 5794 5792 5791 5789 5787 5785 5783 5781 5779 5777 5774 5771 5768 5765 5762 5759 5757 5754 5752
5699 5705 5714 5723 5728 5733 5735 5742 5754 5755 5757 5762 5767 5769 5771 5774 5776 5778 5779 5781 5784 5786 5788 5789 5789 5790 5790 5790 5790 5789 5788 5786 5785 5783 5781 5779 5777 5775 5772 5770 5766 5763 5760 5757 5754 5751 5748 5745 5743
5691 5698 5704 5712 5720 5724 5728 5736 5747 5748 5751 5757 5761 5764 5766 5769 5771 5773 5774 5777 5779 5781 5783 5784 5785 5786 5786 5785 5784 5783 5782 5780 5778 5776 5774 5772 5770 5768 5765 5762 5759 5755 5752 5749 5745 5742 5739 5735 5733
5680 5686 5693 5702 5711 5716 5720 5729 5738 5741 5745 5750 5755 5758 5760 5764 5766 5768 5770 5772 5775 5777 5779 5780 5780 5781 5781 5780 5779 5777 5776 5774 5772 5770 5768 5765 5763 5760 5758 5755 5751 5747 5744 5740 5737 5733 5729 5725 5722
5665 5674 5684 5693 5702 5708 5713 5721 5729 5734 5740 5745 5750 5753 5754 5759 5761 5763 5765 5768 5770 5772 5774 5775 5775 5776 5775 5774 5773 5771 5769 5767 5766 5763 5761 5758 5756 5753 5750 5746 5742 5739 5735 5731 5727 5723 5719 5715 5710
5652 5665 5678 5687 5695 5700 5706 5714 5722 5729 5734 5739 5743 5747 5749 5754 5756 5758 5761 5763 5765 5767 5769 5770 5770 5770 5769 5768 5766 5765 5763 5761 5759 5757 5754 5751 5748 5745 5741 5737 5733 5729 5725 5721 5716 5712 5708 5704 5699
5642 5660 5672 5681 5688 5692 5700 5707 5717 5722 5727 5732 5737 5740 5743 5749 5750 5753 5755 5758 5760 5762 5763 5764 5764 5764 5763 5761 5760 5758 5756 5754 5752 5749 5746 5743 5740 5736 5732 5729 5724 5720 5716 5711 5707 5702 5697 5692 5687
5638 5655 5666 5675 5682 5687 5693 5700 5711 5716 5720 5727 5731 5735 5738 5743 5745 5747 5750 5752 5755 5757 5758 5758 5758 5757 5756 5755 5753 5751 5749 5747 5744 5741 5738 5735 5732 5728 5723 5719 5715 5711 5706 5702 5696 5691 5685 5678 5671
5633 5647 5658 5667 5673 5679 5687 5695 5706 5710 5714 5721 5725 5729 5733 5737 5740 5742 5744 5747 5749 5751 5752 5752 5751 5751 5749 5748 5746 5744 5742 5739 5736 5733 5730 5726 5723 5719 5715 5711 5706 5702 5697 5691 5685 5678 5671 5664 5656
5623 5638 5650 5656 5663 5671 5684 5690 5700 5703 5708 5715 5721 5724 5728 5731 5734 5737 5739 5742 5744 5745 5746 5745 5745 5744 5743 5741 5739 5736 5734 5731 5728 5725 5721 5718 5714 5710 5706 5702 5697 5691 5685 5679 5672 5664 5656 5648 5640
5620 5632 5644 5652 5659 5671 5680 5685 5695 5699 5706 5710 5715 5719 5723 5726 5729 5731 5734 5736 5738 5739 5739 5739 5738 5738 5736 5734 5731 5729 5726 5723 5720 5717 5713 5709 5705 5701 5696 5691 5685 5679 5672 5664 5657 5649 5641 5632 5623
5618 5627 5641 5652 5661 5671 5676 5684 5689 5696 5701 5705 5710 5714 5718 5721 5723 5726 5728 5730 5731 5732 5733 5732 5732 5731 5729 5726 5724 5721 5718 5715 5712 5708 5704 5700 5696 5691 5685 5679 5672 5665 5658 5650 5642 5633 5624 5615 5605
5618 5629 5639 5650 5658 5666 5673 5680 5686 5692 5697 5701 5706 5709 5713 5716 5718 5720 5722 5724 5725 5726 5726 5725 5725 5723 5721 5719 5716 5713 5710 5707 5703 5699 5695 5691 5685 5680 5673 5666 5659 5651 5643 5634 5626 5616 5606 5597 5586
5617 5628 5638 5648 5656 5664 5670 5677 5681 5688 5693 5697 5701 5705 5708 5711 5713 5715 5717 5718 5718 5719 5719 5718 5717 5716 5713 5711 5708 5705 5702 5698 5694 5690 5685 5680 5674 5667 5660 5652 5644 5635 5626 5617 5608 5599 5589 5579 5568
5620 5629 5638 5648 5655 5661 5666 5675 5678 5684 5689 5693 5697 5700 5703 5705 5708 5710 5711 5712 5712 5712 5712 5711 5710 5708 5705 5702 5699 5696 5693 5689 5685 5680 5674 5668 5661 5654 5646 5637 5628 5619 5609 5600 5591 5582 5571 5560 5549